Regional Weather Roundup
Issued by NWS Bismarck, ND

Home | Current Version | Previous Version | Text Only | Print | Product List | Glossary On
Versions: 1 2 3 4 5 6 7 8 9 10 11 12 13 14 15 16 17 18 19 20 21 22 23 24 25 26 27 28 29 30 31 32 33 34 35 36 37 38 39 40 41 42 43 44 45 46 47 48 49 50
000
ASUS43 KBIS 040020
RWRBIS

NWR BROADCAST TEXT
NATIONAL WEATHER SERVICE BISMARCK ND
700 PM CDT SUN MAY 03 2015

NOTE: "FAIR" INDICATES FEW OR NO CLOUDS BELOW 12,000 FEET WITH NO
SIGNIFICANT WEATHER AND/OR OBSTRUCTIONS TO VISIBILITY.


CITY           SKY/WX    TMP DP  RH WIND       PRES   REMARKS
WILLISTON      LGT RAIN  62  18  18 NW9       30.03R
MINOT          MOSUNNY   61  23  23 NW20G25   30.00R
MINOT AFB      MOSUNNY   65  25  22 NW16G24   30.00R
BISMARCK       MOSUNNY   64  20  18 NW13G24   30.02S
DICKINSON      MOSUNNY   61  26  26 N8        30.02S
GARRISON         N/A     64  22  20 NW17      30.00S
HETTINGER ARPT SUNNY     64  25  22 NE7       30.03R
JAMESTOWN      MOSUNNY   65  22  19 NW15G22   29.97R
BEACH          FAIR      57  27  30 N7        30.05S
CARRINGTON     FAIR      63  23  22 NW20G26   29.99S
CROSBY         FAIR      59  21  23 NW17      30.04R
HARVEY         FAIR      59  25  27 NW15      29.99S
HAZEN          FAIR      63  21  20 NW10G21   30.03S
LINTON         FAIR      63  19  19 N15G21    30.00S
MANDAN         FAIR      63  21  20 NW21      30.03R
OAKES            N/A     66  25  20 N13G21    29.96R
STANLEY        FAIR      59  23  25 N14G20    30.03S
TIOGA          FAIR      59  18  20 NW10G16   30.06R
WATFORD CITY   FAIR      63  19  19 NW13      30.01S
$$

CITY           SKY/WX    TMP DP  RH WIND       PRES   REMARKS
GRAND FORKS    MOSUNNY   66  26  22 NW13      29.93R
GRAND FORKS AF SUNNY     66  25  21 N10       29.93S
DEVILS LAKE    MOSUNNY   63  25  23 NW15      29.97R
FARGO          MOSUNNY   67  21  17 NW15      29.92S
CANDO          FAIR      63  23  22 NW13G18   29.98R
CAVALIER       FAIR      64  27  24 NW12      29.94R
GRAFTON        FAIR      64  28  25 NW15      29.94R
GWINNER        CLEAR     70  25  18 N15       29.96S
LANGDON        FAIR      61  27  27 NW16G23   29.96S
WALHALLA       FAIR      63  27  25 NW14      29.95R
$$

CITY           SKY/WX    TMP DP  RH WIND       PRES   REMARKS
ABERDEEN       MOSUNNY   69  23  17 N16       29.96S
MOBRIDGE       PTSUNNY   67  26  21 N9        29.97S
BUFFALO          N/A     60  34  37 SE8       29.97S
RAPID CITY     MOSUNNY   64  36  35 NE15      30.02R
GLASGOW        PTSUNNY   61  23  23 CALM      30.03S
SIDNEY         SUNNY     63  19  19 CALM      30.04S
WOLF POINT     SUNNY     65  26  23 NW12G17   30.03S
GLENDIVE       MOSUNNY   61  28  29 NW7       30.05R
MILES CITY     PTSUNNY   64  31  28 NE9       30.00F
BAKER          MOSUNNY   62  29  28 N8        30.04S
$$

CITY           SKY/WX    TMP DP  RH WIND       PRES   REMARKS
BILLINGS       PTSUNNY   62  35  36 E14       29.97F
GREAT FALLS    SUNNY     64  21  19 E10       29.93F
REGINA         PTSUNNY   55  27  33 W10       30.04R
ESTEVAN        MOSUNNY   59  25  27 N12G18    30.03R
$$



USA.gov is the U.S. government's official web portal to all federal, state and local government web resources and services.